Location: Munkebjergskolens Observatorium
(55.3864°N, 10.3987°E)
Time: 08:31:13
(UTC+02:00)

JY1SAT - Pass Details

Date: 07 April 2023
Orbit: 555 x 574 km, 97.6° (Epoch: 03 June)

Event Time Altitude Azimuth Distance (km) Brightness Sun altitude
Exits shadow 23:37:01 15° 243° (WSW) 1,547 ? -24.0°
Maximum altitude 23:38:31 18° 271° (W) 1,411 ? -24.1°
Drops below altitude 10° 23:41:24 10° 316° (NW) 1,882 ? -24.3°
Sets 23:44:08 0° 335° (NNW) 2,791 ? -24.5°
